WA4FG Weather Reports


Display with metric or nautical units.
time (UTC)temp
F
wind
direction
speed
MPH
gust
MPH
rain 1hr
in
rain 24hr
in
rain mn
in
humidity
%
barometer
mb
20260906144423 84 79 0.0 0.0 0.00 0.00 0.00 75 1012.9
20260906143900 84 211 0.0 0.0 0.00 0.00 0.00 78 1012.9
20260906143328 83 211 0.0 0.0 0.00 0.00 0.00 76 1012.9
20260906142759 83 211 0.0 0.0 0.00 0.00 0.00 78 1012.9
20260906142254 83 211 0.0 0.0 0.00 0.00 0.00 79 1012.8
20260906141245 81 211 0.0 0.0 0.00 0.00 0.00 81 1012.9
20260906140742 80 211 0.0 0.0 0.00 0.00 0.00 82 1012.8
20260906140215 80 211 0.0 0.0 0.00 0.00 0.00 84 1012.9
20260906135714 79 211 0.0 0.0 0.00 0.00 0.00 85 1013.0
20260906135211 79 211 0.0 0.0 0.00 0.00 0.00 86 1013.1
20260906134710 79 211 0.0 0.0 0.00 0.00 0.00 88 1013.3
20260906134203 78 211 0.0 0.0 0.00 0.00 0.00 88 1013.3
20260906133639 78 211 0.0 0.0 0.00 0.00 0.00 89 1013.4
20260906133140 78 211 0.0 0.0 0.00 0.00 0.00 90 1013.4
20260906132633 78 211 0.0 0.0 0.00 0.00 0.00 91 1013.4
20260906132056 78 211 0.0 0.0 0.00 0.00 0.00 91 1013.5
20260906131556 78 211 0.0 0.0 0.00 0.00 0.00 91 1013.4
20260906131055 77 211 0.0 0.0 0.00 0.00 0.00 92 1013.3
20260906130106 77 211 0.0 0.0 0.00 0.00 0.00 92 1012.9
20260906125553 77 211 0.0 0.0 0.00 0.00 0.00 92 1012.9
20260906125028 77 211 0.0 0.0 0.00 0.00 0.00 92 1012.9
20260906124457 77 211 0.0 0.0 0.00 0.00 0.00 91 1012.9
20260906123958 77 211 0.0 0.0 0.00 0.00 0.00 91 1013.0
20260906122920 77 211 0.0 0.0 0.00 0.00 0.00 90 1012.7
20260906122352 77 211 0.0 0.0 0.00 0.00 0.00 90 1012.6
20260906121847 77 211 0.0 0.0 0.00 0.00 0.00 90 1012.5
20260906121344 77 211 0.0 0.0 0.00 0.00 0.00 90 1012.4
20260906120828 77 211 0.0 0.0 0.00 0.00 0.00 90 1012.3
20260906120330 77 211 0.0 0.0 0.00 0.00 0.00 90 1012.2
20260906115748 77 211 0.0 0.0 0.00 0.00 0.00 90 1012.2
20260906115224 77 211 0.0 0.0 0.00 0.00 0.00 89 1012.3
20260906114655 77 211 0.0 0.0 0.00 0.00 0.00 89 1012.4
20260906114134 77 211 0.0 0.0 0.00 0.00 0.00 89 1012.4
20260906113613 77 211 0.0 0.0 0.00 0.00 0.00 88 1012.4
20260906113113 77 211 0.0 0.0 0.00 0.00 0.00 88 1012.6
20260906112613 77 211 0.0 0.0 0.00 0.00 0.00 88 1012.5
20260906112049 77 211 0.0 0.0 0.00 0.00 0.00 88 1012.5
20260906111548 77 211 0.0 0.0 0.00 0.00 0.00 87 1012.5
20260906111048 78 211 0.0 0.0 0.00 0.00 0.00 87 1012.6
20260906110545 78 211 0.0 0.0 0.00 0.00 0.00 87 1012.6
20260906110045 78 211 0.0 0.0 0.00 0.00 0.00 86 1012.5
20260906105524 78 211 0.0 0.0 0.00 0.00 0.00 86 1012.6
20260906103902 78 241 0.0 0.0 0.00 0.00 0.00 85 1012.7
20260906103344 78 241 0.0 0.0 0.00 0.00 0.00 84 1012.7
20260906102840 78 241 0.0 0.0 0.00 0.00 0.00 84 1012.7
20260906102316 78 241 0.0 2.0 0.00 0.00 0.00 84 1012.7
20260906101752 78 241 0.0 2.0 0.00 0.00 0.00 83 1012.7
20260906101252 78 241 0.0 4.0 0.00 0.00 0.00 83 1012.7
20260906100802 78 302 0.0 4.0 0.00 0.00 0.00 85 1012.5
20260906100251 79 219 0.0 2.0 0.00 0.00 0.00 87 1012.6
20260906094654 79 52 0.0 0.0 0.00 0.00 0.00 88 1011.9
20260906094149 79 52 0.0 0.0 0.00 0.00 0.00 90 1011.9
20260906093650 79 52 0.0 0.0 0.00 0.00 0.00 91 1011.9
20260906093111 79 52 0.0 0.0 0.00 0.00 0.00 93 1011.9
20260906092041 79 52 0.0 0.0 0.00 0.00 0.00 94 1011.9
20260906091523 79 52 0.0 0.0 0.00 0.00 0.00 94 1011.8
20260906091035 79 52 0.0 0.0 0.00 0.00 0.00 94 1011.7
20260906090520 79 52 0.0 0.0 0.00 0.00 0.00 95 1011.8
20260906090021 79 52 0.0 0.0 0.00 0.00 0.00 95 1011.9
20260906085455 79 52 0.0 0.0 0.00 0.00 0.00 95 1011.8
20260906084427 78 52 0.0 0.0 0.00 0.00 0.00 95 1011.8
20260906083900 78 52 0.0 0.0 0.00 0.00 0.00 96 1011.9
20260906083344 78 52 0.0 0.0 0.00 0.00 0.00 96 1011.9
20260906082846 78 52 0.0 0.0 0.00 0.00 0.00 96 1012.0
20260906082329 78 52 0.0 0.0 0.00 0.00 0.00 96 1012.2
20260906081328 78 52 0.0 0.0 0.00 0.00 0.00 96 1012.2
20260906080841 78 52 0.0 0.0 0.00 0.00 0.00 96 1012.4
20260906080303 78 52 0.0 0.0 0.00 0.00 0.00 96 1012.5
20260906075752 78 52 0.0 0.0 0.00 0.00 0.00 95 1012.5
20260906075249 78 52 0.0 0.0 0.00 0.00 0.00 95 1012.3
20260906074722 78 52 0.0 0.0 0.00 0.00 0.00 95 1012.0
20260906074220 78 52 0.0 0.0 0.00 0.00 0.00 95 1011.9
20260906071614 78 52 0.0 0.0 0.00 0.00 0.00 95 1012.1
20260906070615 78 52 0.0 0.0 0.00 0.00 0.00 95 1012.0
20260906070109 78 52 0.0 0.0 0.00 0.00 0.00 95 1012.0
20260906065603 78 52 0.0 0.0 0.00 0.00 0.00 95 1012.1
20260906064534 78 52 0.0 0.0 0.00 0.00 0.00 94 1012.2
20260906063527 78 52 0.0 0.0 0.00 0.00 0.00 94 1012.4
20260906063011 78 52 0.0 0.0 0.00 0.00 0.00 94 1012.3
20260906062513 78 52 0.0 0.0 0.00 0.00 0.00 94 1012.5
20260906061946 78 52 0.0 0.0 0.00 0.00 0.00 94 1012.5
20260906061413 78 52 0.0 0.0 0.00 0.00 0.00 94 1012.5
20260906060909 78 52 0.0 0.0 0.00 0.00 0.00 94 1012.6
20260906060408 78 52 0.0 0.0 0.00 0.00 0.00 94 1012.6
20260906055324 78 52 0.0 0.0 0.00 0.00 0.00 93 1012.5
20260906054758 78 52 0.0 0.0 0.00 0.00 0.00 93 1012.6
20260906054231 78 52 0.0 0.0 0.00 0.00 0.00 93 1012.8
20260906053221 78 52 0.0 0.0 0.00 0.00 0.00 93 1012.8
20260906052654 78 52 0.0 0.0 0.00 0.00 0.00 93 1012.7
20260906052144 78 52 0.0 0.0 0.00 0.00 0.00 93 1012.7
20260906051641 78 52 0.0 0.0 0.00 0.00 0.00 93 1012.7
20260906051117 78 52 0.0 0.0 0.00 0.00 0.00 93 1012.8
20260906050552 79 52 0.0 0.0 0.00 0.00 0.00 93 1013.0
20260906050024 79 52 0.0 0.0 0.00 0.00 0.00 93 1012.9
20260906044509 79 52 0.0 0.0 0.00 0.00 0.00 91 1012.7
20260906043941 79 52 0.0 0.0 0.00 0.00 0.00 91 1012.6
20260906043439 79 52 0.0 0.0 0.00 0.00 0.00 91 1012.5
20260906042911 79 52 0.0 0.0 0.00 0.00 0.00 91 1012.7
20260906042409 79 52 0.0 0.0 0.00 0.00 0.00 91 1012.7
20260906041912 79 52 0.0 0.0 0.00 0.00 0.00 91 1012.7
20260906041333 80 52 0.0 0.0 0.00 0.00 0.00 91 1012.7
20260906040805 80 52 0.0 0.0 0.00 0.00 0.00 90 1012.6
20260906040302 80 52 0.0 0.0 0.00 0.00 0.00 90 1012.7
20260906035736 80 52 0.0 0.0 0.00 0.00 0.00 90 1012.7
20260906035230 80 52 0.0 0.0 0.00 0.00 0.00 90 1012.7
20260906034721 80 52 0.0 0.0 0.00 0.00 0.00 90 1012.7
20260906034208 80 52 0.0 0.0 0.00 0.00 0.00 89 1012.7
20260906033709 80 52 0.0 0.0 0.00 0.00 0.00 89 1012.7
20260906033143 80 52 0.0 0.0 0.00 0.00 0.00 88 1012.9
20260906032641 81 52 0.0 1.0 0.00 0.00 0.00 88 1012.7
20260906032140 81 52 0.0 1.0 0.00 0.00 0.00 88 1012.6
20260906031642 81 52 0.0 0.0 0.00 0.00 0.00 88 1012.6
20260906030548 81 52 0.0 0.0 0.00 0.00 0.00 87 1012.6
20260906030046 81 52 0.0 0.0 0.00 0.00 0.00 87 1012.5
20260906025519 81 52 0.0 0.0 0.00 0.00 0.00 87 1012.5
20260906025015 81 52 0.0 0.0 0.00 0.00 0.00 87 1012.5
20260906024449 82 52 0.0 0.0 0.00 0.00 0.00 86 1012.6
20260906023442 82 52 0.0 0.0 0.00 0.00 0.00 86 1012.6
20260906022918 82 52 0.0 0.0 0.00 0.00 0.00 86 1012.6
20260906021917 82 52 0.0 0.0 0.00 0.00 0.00 85 1012.4
20260906021406 82 52 0.0 0.0 0.00 0.00 0.00 85 1012.4
20260906020906 82 52 0.0 0.0 0.00 0.00 0.00 85 1012.4
20260906020406 83 52 0.0 0.0 0.00 0.00 0.00 85 1012.4
20260906015841 83 52 0.0 0.0 0.00 0.00 0.00 84 1012.3
20260906015322 83 52 0.0 0.0 0.00 0.00 0.00 84 1012.1
20260906014823 83 52 0.0 0.0 0.00 0.00 0.00 84 1012.0
20260906014319 83 52 0.0 0.0 0.00 0.00 0.00 83 1011.8
20260906013236 84 52 0.0 0.0 0.00 0.00 0.00 83 1011.8
20260906012734 84 52 0.0 0.0 0.00 0.00 0.00 82 1011.6
20260906012228 84 52 0.0 0.0 0.00 0.00 0.00 82 1011.5
20260906011723 84 52 0.0 0.0 0.00 0.00 0.00 81 1011.4
20260906010710 85 52 0.0 0.0 0.00 0.00 0.00 80 1011.2
20260906010209 85 52 0.0 0.0 0.00 0.00 0.00 80 1011.2
20260906005649 85 52 0.0 0.0 0.00 0.00 0.00 80 1011.1
20260906004553 85 52 0.0 0.0 0.00 0.00 0.00 79 1011.0
20260906003544 86 52 0.0 0.0 0.00 0.00 0.00 78 1011.1
20260906003042 86 52 0.0 0.0 0.00 0.00 0.00 77 1011.0
20260906002525 86 52 0.0 0.0 0.00 0.00 0.00 77 1011.0
20260906001959 86 52 0.0 2.0 0.00 0.00 0.00 76 1011.1
20260906001434 87 52 0.0 2.0 0.00 0.00 0.00 76 1011.2
20260906000913 87 99 0.0 2.0 0.00 0.00 0.00 76 1011.3
20260906000358 87 99 0.0 1.0 0.00 0.00 0.00 75 1011.3
20260905235846 87 99 0.0 1.0 0.00 0.00 0.00 75 1011.3
20260905234834 88 99 0.0 2.0 0.00 0.00 0.00 74 1011.3
20260905234335 88 85 0.0 1.0 0.00 0.00 0.00 74 1011.2
20260905233825 88 69 0.0 1.0 0.00 0.00 0.00 74 1011.2
20260905232816 88 112 0.0 0.0 0.00 0.00 0.00 73 1011.2
20260905232250 89 112 0.0 5.0 0.00 0.00 0.00 73 1011.1
20260905231723 89 113 1.0 5.0 0.00 0.00 0.00 73 1011.1
20260905230644 89 81 0.0 0.0 0.00 0.00 0.00 72 1011.1
20260905230118 90 81 0.0 2.0 0.00 0.00 0.00 72 1011.1
20260905225619 90 121 0.0 2.0 0.00 0.00 0.00 71 1011.1
20260905225045 90 20 0.0 0.0 0.00 0.00 0.00 71 1011.1
20260905224542 91 20 0.0 0.0 0.00 0.00 0.00 70 1011.2
20260905222024 92 131 0.0 1.0 0.00 0.00 0.00 66 1010.7
20260905221525 92 131 0.0 1.0 0.00 0.00 0.00 65 1010.8
20260905221000 93 172 0.0 0.0 0.00 0.00 0.00 65 1010.8
20260905220441 93 171 0.0 0.0 0.00 0.00 0.00 64 1010.6
20260905215915 93 37 0.0 0.0 0.00 0.00 0.00 64 1010.5
20260905215349 93 194 0.0 0.0 0.00 0.00 0.00 64 1010.5
20260905214848 93 194 0.0 2.0 0.00 0.00 0.00 63 1010.4
20260905214348 94 92 0.0 2.0 0.00 0.00 0.00 62 1010.4
20260905213846 94 0 0.0 0.0 0.00 0.00 0.00 61 1010.4
20260905213347 94 130 0.0 0.0 0.00 0.00 0.00 60 1010.6
20260905212820 95 130 0.0 0.0 0.00 0.00 0.00 57 1010.5
20260905212330 95 69 0.0 0.0 0.00 0.00 0.00 56 1010.5
20260905211750 95 69 0.0 0.0 0.00 0.00 0.00 55 1010.6
20260905211246 96 64 0.0 0.0 0.00 0.00 0.00 56 1010.7
20260905210742 96 141 0.0 1.0 0.00 0.00 0.00 54 1010.6
20260905210213 96 124 0.0 1.0 0.00 0.00 0.00 54 1010.6
20260905205702 97 193 0.0 0.0 0.00 0.00 0.00 53 1010.6
20260905205200 97 192 0.0 1.0 0.00 0.00 0.00 56 1010.8
20260905204656 97 194 0.0 4.0 0.00 0.00 0.00 53 1010.8
20260905204153 97 125 0.0 4.0 0.00 0.00 0.00 53 1010.7
20260905203642 97 127 0.0 2.0 0.00 0.00 0.00 54 1010.8
20260905203140 97 159 0.0 1.0 0.00 0.00 0.00 54 1010.8
20260905202611 97 130 0.0 1.0 0.00 0.00 0.00 55 1010.9
20260905202110 97 113 0.0 1.0 0.00 0.00 0.00 56 1010.9
20260905201543 96 112 0.0 1.0 0.00 0.00 0.00 56 1011.0
20260905201028 97 120 0.0 4.0 0.00 0.00 0.00 56 1011.1
20260905200026 98 106 0.0 1.0 0.00 0.00 0.00 55 1011.1
20260905195524 98 317 0.0 1.0 0.00 0.00 0.00 54 1011.1
20260905194956 98 181 0.0 1.0 0.00 0.00 0.00 52 1011.1
20260905194452 99 153 0.0 0.0 0.00 0.00 0.00 45 1011.2
20260905193925 99 152 0.0 0.0 0.00 0.00 0.00 47 1011.3
20260905193400 99 152 0.0 0.0 0.00 0.00 0.00 45 1011.3
20260905192839 99 149 0.0 0.0 0.00 0.00 0.00 48 1011.4
20260905191808 98 184 0.0 0.0 0.00 0.00 0.00 45 1011.6
20260905191305 98 186 0.0 0.0 0.00 0.00 0.00 46 1011.7
20260905190739 98 185 0.0 0.0 0.00 0.00 0.00 48 1011.7
20260905190223 98 187 0.0 0.0 0.00 0.00 0.00 49 1011.8
20260905185204 98 189 0.0 4.0 0.00 0.00 0.00 46 1012.0
20260905184627 98 189 0.0 4.0 0.00 0.00 0.00 45 1012.1
20260905183600 97 169 0.0 0.0 0.00 0.00 0.00 50 1012.2
20260905183052 97 169 0.0 0.0 0.00 0.00 0.00 52 1012.3
20260905182548 97 169 0.0 2.0 0.00 0.00 0.00 50 1012.4
20260905182039 97 169 0.0 2.0 0.00 0.00 0.00 50 1012.6
20260905181022 98 190 0.0 8.0 0.00 0.00 0.00 46 1012.7
20260905180443 98 200 0.0 4.0 0.00 0.00 0.00 47 1012.7
20260905175407 97 180 0.0 0.0 0.00 0.00 0.00 51 1012.9
20260905174907 97 180 0.0 0.0 0.00 0.00 0.00 49 1013.0
20260905174348 97 184 0.0 2.0 0.00 0.00 0.00 47 1013.0
20260905173845 97 182 0.0 2.0 0.00 0.00 0.00 48 1013.1
20260905173323 97 114 0.0 0.0 0.00 0.00 0.00 48 1013.1
20260905172758 97 223 0.0 0.0 0.00 0.00 0.00 50 1013.3
20260905172229 97 231 0.0 0.0 0.00 0.00 0.00 50 1013.4
20260905170657 96 230 0.0 1.0 0.00 0.00 0.00 52 1013.6
20260905170153 95 183 0.0 1.0 0.00 0.00 0.00 52 1013.6
20260905165652 95 184 0.0 0.0 0.00 0.00 0.00 52 1013.7
20260905165152 95 154 0.0 0.0 0.00 0.00 0.00 52 1013.7
20260905164625 96 113 0.0 0.0 0.00 0.00 0.00 53 1013.8
20260905164108 96 113 0.0 1.0 0.00 0.00 0.00 55 1013.8
20260905163606 96 136 0.0 0.0 0.00 0.00 0.00 52 1013.9
20260905163043 95 179 0.0 0.0 0.00 0.00 0.00 54 1013.9
20260905161459 96 177 0.0 0.0 0.00 0.00 0.00 54 1014.0
20260905161012 96 286 0.0 0.0 0.00 0.00 0.00 54 1014.2
20260905160458 96 286 0.0 0.0 0.00 0.00 0.00 53 1014.1
20260905160004 95 294 0.0 0.0 0.00 0.00 0.00 55 1014.1
20260905155450 95 294 0.0 0.0 0.00 0.00 0.00 58 1014.1
20260905154408 94 166 0.0 0.0 0.00 0.00 0.00 57 1014.0
20260905153905 94 157 0.0 0.0 0.00 0.00 0.00 57 1014.1
20260905153405 93 157 0.0 0.0 0.00 0.00 0.00 60 1014.1
20260905152857 92 157 0.0 0.0 0.00 0.00 0.00 59 1014.0
20260905152355 92 157 0.0 0.0 0.00 0.00 0.00 61 1014.0
20260905151352 92 165 0.0 1.0 0.00 0.00 0.00 62 1014.1
20260905150855 92 198 0.0 0.0 0.00 0.00 0.00 66 1014.1
20260905145831 90 223 0.0 0.0 0.00 0.00 0.00 65 1014.1
20260905145331 90 223 0.0 0.0 0.00 0.00 0.00 68 1014.1